Regional Weather Roundup
Issued by NWS

Home | Current Version | Previous Version | Text Only | Print | Product List | Glossary Off
Versions: 1 2 3 4 5 6 7 8 9 10 11 12 13 14 15 16 17 18 19 20 21 22 23 24 25 26 27 28 29 30 31 32 33 34 35 36 37 38 39 40 41 42 43 44 45 46 47 48 49

000
ASUS45 KSLC 290410
RWRUT

UTAH REGIONAL WEATHER ROUNDUP
NATIONAL WEATHER SERVICE SALT LAKE CITY UT
900 PM MST SUN DEC 28 2014

UTZ001>011-023>025-290500-

NORTHERN UTAH

CITY           SKY/WX    TMP DP  RH WIND       PRES   REMARKS
BRIGHAM CITY   CLOUDY    28  25  88 CALM      30.05F
HILL AFB       NOT AVBL
LOGAN          PTCLDY    24  21  88 S5        30.03F WCI  18
OGDEN          CLOUDY    25  24  96 S6        30.03F WCI  18
PROVO AIRPORT  MOCLDY    27  23  86 S6        30.05F WCI  20
SALT LAKE CITY FLURRIES  28  26  92 E7        30.04F WCI  21
VERNAL         CLOUDY    21  16  81 CALM      30.02R
WENDOVER       CLOUDY    28  25  86 S8        30.06R WCI  20
HEBER CITY     LGT SNOW  25  21  86 CALM      30.00F
WEST JORDAN    CLOUDY    25  25 100 CALM      30.04F

$$

UTZ012>022-026-027-290500-

SOUTHERN/CENTRAL UTAH

CITY           SKY/WX    TMP DP  RH WIND       PRES   REMARKS
BLANDING       CLEAR     20  11  69 N7        30.12S WCI  11
BRYCE CANYON   CLEAR      8   4  83 N3        29.99F
CEDAR CITY     CLEAR     21  10  62 S9        30.01F WCI  11
DELTA          PTCLDY    27  23  86 NE14G20   30.03F WCI  15
MILFORD        CLEAR     28  13  53 W5        30.00F WCI  23
MOAB/CYNLANDS  MOCLDY    16  11  80 N5        30.02S WCI   9
PRICE          LGT SNOW  23  19  85 SW3       29.99R VSB 3/4
ST GEORGE      MOCLDY    30   7  37 S3        30.14S
KANAB          CLEAR     21  10  63 NE3       30.11F

$$

REGIONAL REPORTS     COLORADO/ARIZONA

CITY           SKY/WX    TMP DP  RH WIND       PRES   REMARKS
CRAIG, CO      CLOUDY    20  14  77 N5        29.97R WCI  13
GRAND JUNCTION MOCLDY    20  16  84 CALM      30.03S
RIFLE          CLOUDY    20  15  81 CALM      30.02S
MONTROSE       PTCLDY    18  12  77 CALM      30.01F
CORTEZ         CLEAR     12   7  80 CALM      30.05F
PAGE, AZ       CLEAR     31  11  43 SW6       30.05S WCI  25
GRAND CANYON   CLEAR     15   8  73 NE3       30.10R
KINGMAN        CLEAR     29  12  49 S8        30.13F WCI  21
FLAGSTAFF      CLEAR     26   7  44 W6        30.09S WCI  19

$$

REGIONAL REPORTS    NEVADA/IDAHO/WYOMING

CITY           SKY/WX    TMP DP  RH WIND       PRES   REMARKS
LAS VEGAS, NV  CLEAR     41  13  31 SW3       30.09S
ELY            PTCLDY    23  16  74 CALM      30.01S
ELKO           CLOUDY    25  22  88 SW3       30.04S
POCATELLO, ID  FLURRIES  27  24  89 SW10      30.04R WCI  17
BURLEY         CLEAR     20  14  77 SW9       30.03R WCI   9
EVANSTON, WY   LGT SNOW  15  13  91 SW5       29.95S FOG     WCI   8
ROCK SPRINGS   PTCLDY    11   8  88 SW9       29.95R WCI  -2

$$



USA.gov is the U.S. government's official web portal to all federal, state and local government web resources and services.